Tracking 28052 objects as of 24-Sep-2023
HD Live streaming from Space Station
objects crossing your sky now

STARLINK-30331

Track STARLINK-30331 now!
10-day predictions
STARLINK-30331 is classified as:


NORAD ID: 57740
Int'l Code: 2023-131J
Perigee: 435.5 km
Apogee: 437.6 km
Inclination: 43.0 °
Period: 93.2 minutes
Semi major axis: 6807 km
RCS: Unknown
Launch date: September 1, 2023
Source: United States (US)
Launch site: AIR FORCE EASTERN TEST RANGE (AFETR)
Your satellite tracking list
Your tracking list is empty




NASA's NSSDC Master Catalog

Two Line Element Set (TLE):
1 57740U 23131J   23267.16668981 -.02133128  00000-0 -48791-1 0  9990
2 57740  43.0001  12.5240 0001580 264.4810 262.2346 15.45672929  4599
Source of the keplerian elements: AFSPC